User: anonymous
Location: Elk Forest
(39.5314°N, 75.8738°W)
Time: 20:34:17
(UTC-04:00)
Language:

Resurs 01 Rocket - Orbit

View from above orbital plane
View from above orbital plane
View from above satellite
View from above satellite

Ground track
Ground track

The orbit data is extracted from the following two-line orbital elements,

1 23343U 94074B   14205.50479884  .00000048  00000-0  14707-4 0   633
2 23343 098.2242 210.0730 0006540 212.4398 263.5251 14.76150872 60608
Epoch (UTC): 24 July 2014 12:06:54
Eccentricity: 0.0006540
inclination: 98.2242°
perigee height: 637 km
apogee height: 646 km
right ascension of ascending node: 210.0730°
argument of perigee: 212.4398°
revolutions per day: 14.76150872
mean anomaly at epoch: 263.5251°
orbit number at epoch: 6060

The dashed part of the orbit path shows where the satellite is in the earth's shadow,  

DLR